Location: Newark
(45.2500°N, 7.5833°E)
Time: 02:33:36
(UTC+00:00)

Vanguard 1 - Visible Passes

Search period start: 27 January 2020 00:00
Search period end: 06 February 2020 00:00
Orbit: 650 x 3833 km, 34.2° (Epoch: 26 January)

Date Brightness Start Highest point End Pass type
(mag) Time Alt. Az. Time Alt. Az. Time Alt. Az.
27 Jan 11.2 18:16:19 10° WSW 18:20:00 23° S 18:23:12 15° SE visible
28 Jan 11.4 18:37:13 10° WSW 18:40:46 21° S 18:43:11 16° SSE visible
29 Jan 11.6 18:58:19 10° SW 19:01:32 18° S 19:03:11 16° S visible
30 Jan 11.2 16:59:27 10° SW 17:02:53 22° S 17:06:31 10° SE visible
30 Jan 11.9 19:19:46 10° SW 19:22:20 14° SSW 19:23:14 13° S visible
31 Jan 11.4 17:20:20 10° SW 17:23:35 20° S 17:27:06 10° SE visible
01 Feb 11.6 17:41:23 10° SW 17:44:18 17° SSW 17:47:28 10° SSE visible
02 Feb 11.8 18:02:46 10° SW 18:05:01 13° SSW 18:07:24 10° SSE visible
